Theta_e
294 295 295 300 309 313 316 320 322 324 326 327 327 327 326 327 326 326 328 329 325 325 321 320 316 313 311 310 309 304 300 296 295 294 294 292 291 291 293 296 295 296 298
291 293 294 293 299 307 314 317 322 323 326 327 327 325 327 327 326 325 326 329 329 328 323 321 317 315 313 310 308 304 299 297 296 296 291 294 294 291 291 290 293 296 294
290 291 292 292 292 296 305 314 318 322 325 327 320 315 316 315 317 317 322 325 329 329 326 324 321 316 315 312 309 307 305 299 294 295 298 289 291 287 289 290 292 292 294
293 294 293 292 292 293 295 306 312 316 321 322 321 321 324 323 323 322 317 317 321 327 328 326 323 319 317 316 311 309 307 306 297 295 295 295 294 292 292 286 286 290 290
292 293 294 296 296 295 293 298 306 312 316 321 322 320 318 318 314 312 312 312 313 319 324 326 324 320 318 317 314 309 306 307 304 298 294 296 294 291 289 296 292 285 286
293 294 294 295 296 296 298 301 305 308 313 316 316 316 317 314 309 307 308 309 308 310 313 321 324 322 319 318 316 311 308 307 307 304 303 299 294 293 292 290 294 292 288
292 294 294 295 295 296 296 300 304 306 308 311 312 312 313 312 310 309 308 306 305 305 307 313 319 321 320 318 316 312 309 307 306 306 303 303 303 303 297 295 296 289 289
293 294 295 295 294 295 296 297 299 300 303 305 307 307 308 309 308 308 306 306 306 306 306 306 311 317 319 316 315 312 310 309 306 306 306 304 303 303 302 299 297 293 287
293 294 294 294 295 295 295 295 296 297 297 298 299 300 301 302 304 304 303 304 303 303 303 303 304 306 311 315 315 312 309 307 306 305 305 304 305 303 302 301 299 299 295
293 293 293 294 294 294 294 295 296 296 296 296 296 297 298 298 299 300 300 300 301 300 300 300 301 301 302 305 310 311 311 309 307 305 304 304 304 304 303 301 299 298 297
293 293 294 294 294 294 294 294 294 294 295 295 295 295 296 296 297 297 298 298 298 298 298 299 299 299 300 299 302 305 307 307 306 306 303 302 303 303 302 300 299 297 296
292 293 294 294 294 294 294 294 295 295 294 294 294 295 295 295 295 296 297 297 297 297 298 297 297 298 299 299 299 301 303 303 303 303 303 301 301 300 301 300 297 296 296
293 293 293 293 293 293 294 293 294 293 293 293 293 293 294 293 293 294 294 295 295 294 294 294 294 295 297 298 300 303 302 302 303 302 300 301 298 297 297 297 296 295 294
293 292 292 292 292 292 293 293 293 293 291 291 291 291 291 291 291 291 292 291 292 291 292 292 292 292 294 295 299 300 299 299 300 300 300 298 297 296 295 294 294 293 291
291 291 291 291 291 291 291 291 291 291 290 289 289 289 289 289 288 288 288 288 288 289 289 289 288 288 289 292 295 295 296 295 296 294 293 293 293 292 294 292 291 289 288
290 290 290 291 291 291 291 291 290 289 287 287 286 287 286 285 285 285 285 285 286 286 287 287 286 286 289 292 294 294 291 290 290 291 290 289 287 289 292 294 294 290 288
289 289 289 290 290 289 290 289 288 287 285 285 284 283 284 283 284 284 284 284 284 285 285 285 285 284 285 291 292 292 290 289 289 288 287 287 286 286 287 289 292 292 292
289 289 289 289 289 289 288 288 286 286 285 285 283 281 282 282 281 281 281 283 283 283 283 282 282 281 283 289 291 291 288 287 286 286 286 286 285 285 285 285 285 285 285
289 289 288 288 288 287 287 285 285 285 285 285 284 284 282 281 281 281 281 280 280 279 279 279 279 276 280 288 289 289 286 285 284 284 284 284 284 285 287 284 283 283 283
288 288 286 286 286 286 284 284 284 282 283 284 283 282 280 279 279 280 280 277 275 279 279 279 275 276 282 286 287 288 284 283 282 282 282 283 284 285 287 283 283 281 282
285 284 284 285 285 284 283 282 282 281 282 280 279 279 278 277 277 277 276 276 275 276 275 275 274 275 280 282 286 289 283 282 281 281 281 282 286 286 287 285 283 282 284
285 284 284 283 283 282 279 279 279 281 277 277 276 277 275 278 278 272 273 271 270 271 273 273 276 275 276 282 287 286 284 284 281 281 281 282 286 287 287 284 287 287 284
284 283 280 280 281 277 275 277 279 276 275 274 275 275 276 279 274 270 272 271 267 270 272 273 272 277 279 282 287 286 286 284 281 282 283 284 286 287 286 287 287 283 282
278 277 276 277 277 277 275 275 276 275 275 279 278 276 277 279 277 274 273 272 272 272 274 274 274 278 278 281 282 283 282 283 283 284 283 285 286 286 285 284 284 282 281
277 275 275 276 277 276 276 275 274 271 272 275 279 280 280 279 277 276 276 275 275 276 272 273 273 274 276 281 284 282 281 281 283 282 283 282 281 281 280 280 280 280 279
274 273 272 271 272 271 274 274 267 266 267 273 277 279 280 280 280 277 276 281 285 285 284 285 279 278 282 286 286 286 286 285 285 279 279 279 279 278 278 278 275 273 273
Wind_Speed
8 9 9 9 9 8 9 12 11 12 9 8 8 8 8 7 6 6 9 10 8 11 12 8 8 8 9 11 9 4 5 3 4 2 2 3 5 6 7 6 5 6 7
7 10 8 7 9 10 12 10 13 12 12 10 8 5 7 7 7 6 7 11 11 11 10 10 9 10 7 9 10 10 4 3 7 5 3 3 3 7 10 5 7 10 5
9 8 7 5 4 8 10 12 14 12 12 12 4 3 3 2 3 3 6 9 10 11 12 12 11 11 10 9 11 11 12 8 6 7 5 2 8 0 2 11 9 9 7
6 6 6 4 3 7 6 8 7 8 8 9 8 10 10 11 9 6 4 5 9 11 11 12 12 12 10 11 11 10 10 8 8 4 9 4 3 4 3 3 5 8 9
6 8 8 6 5 6 2 5 6 7 7 9 9 7 7 4 1 3 5 6 6 9 11 11 11 11 9 11 11 10 12 11 8 9 3 11 5 2 4 10 5 1 8
8 7 5 6 6 6 6 3 2 2 5 7 7 8 8 6 4 3 4 4 3 4 6 8 8 8 9 10 10 13 15 14 13 10 10 8 6 9 9 11 13 8 5
7 7 8 8 8 8 8 6 4 3 2 4 4 5 5 5 7 6 4 4 3 3 6 7 9 8 9 9 9 11 12 12 12 14 9 10 11 8 5 8 8 5 4
6 8 8 7 8 8 8 7 7 5 2 0 3 3 4 3 4 5 4 4 5 5 6 7 9 11 9 8 8 8 9 10 11 14 12 9 10 9 9 10 9 7 5
7 7 8 8 8 7 8 7 7 7 6 4 2 3 4 5 5 6 4 4 5 4 6 7 7 8 10 11 9 8 8 9 10 11 12 11 10 9 9 8 10 11 11
8 8 8 8 7 7 6 8 8 8 6 5 5 4 5 4 5 5 6 6 5 4 6 7 7 7 7 8 11 10 10 10 9 9 12 11 10 10 9 10 10 10 12
6 6 7 7 7 7 8 8 9 9 9 7 6 6 6 5 4 4 6 6 5 6 7 7 7 8 9 8 9 12 12 13 12 10 11 13 12 10 9 8 9 10 10
5 6 7 8 9 9 9 9 9 9 7 7 7 7 6 6 5 5 7 5 6 6 7 6 7 8 9 8 10 12 11 13 13 13 14 12 8 12 12 9 12 11 10
7 7 7 8 7 7 7 7 7 7 6 7 8 8 9 8 8 6 6 6 6 6 6 6 7 7 8 8 10 11 12 12 13 12 11 12 10 11 9 10 9 9 9
7 6 7 7 6 6 6 7 7 7 8 8 8 9 10 10 10 10 10 10 9 8 7 6 7 7 7 8 9 10 11 11 11 11 11 11 11 12 11 10 10 9 7
7 7 6 6 5 6 6 6 5 6 6 7 7 7 7 7 8 8 9 9 8 8 7 8 7 7 6 7 8 10 11 10 11 8 8 8 9 11 11 7 7 7 7
5 5 6 7 6 6 6 5 5 5 4 5 5 5 5 6 6 7 8 8 8 8 7 8 7 8 6 11 15 13 8 7 9 9 7 7 7 9 13 14 15 11 9
4 5 5 4 5 5 5 6 6 5 5 5 5 5 5 5 6 6 7 7 7 6 8 8 7 8 7 13 14 14 8 7 8 7 5 5 4 6 6 10 13 13 15
4 3 4 5 5 5 5 7 6 7 7 7 5 3 5 7 6 6 7 7 6 7 8 7 6 6 7 12 12 11 5 6 6 5 5 5 5 5 5 4 4 3 2
1 0 2 3 6 7 7 7 9 8 9 10 11 10 10 11 9 9 8 6 6 5 5 4 6 5 6 10 10 8 4 4 4 3 3 3 3 5 9 4 4 5 4
1 1 3 3 5 6 6 7 8 8 9 9 11 9 9 9 11 10 10 4 4 8 6 6 4 5 5 9 10 9 1 2 2 2 2 4 3 5 8 4 6 6 6
3 2 2 4 6 6 6 7 7 8 7 7 9 9 8 9 8 9 5 6 8 8 6 6 5 6 5 6 9 5 1 2 1 2 2 2 4 4 7 7 5 6 8
5 2 3 5 6 4 1 5 7 7 6 8 9 9 8 7 7 7 7 6 6 6 6 5 5 3 5 8 6 2 2 2 1 1 1 2 1 6 10 6 11 16 10
5 3 3 6 7 4 2 5 6 5 6 7 9 8 8 8 5 6 7 5 4 4 6 4 3 3 2 3 2 3 4 4 1 1 3 4 5 11 8 11 15 9 6
4 2 3 5 7 6 4 7 8 6 7 11 12 10 10 13 9 5 4 4 5 5 5 4 3 2 1 1 2 3 3 6 3 3 1 5 9 10 7 7 8 6 5
2 1 3 6 9 8 9 7 5 5 8 9 10 12 9 9 10 8 6 6 5 6 4 4 3 2 1 1 5 5 3 2 4 4 4 5 6 6 6 6 6 4 3
3 4 4 6 7 7 11 10 5 4 6 10 8 8 8 7 7 7 8 11 13 13 12 12 6 2 4 9 10 10 11 11 10 3 3 4 4 4 4 4 5 4 5
Wind_Direction
285 251 236 216 202 201 197 194 188 194 181 187 195 209 212 210 205 197 192 199 204 196 193 195 192 188 188 194 191 150 183 157 146 106 236 255 241 241 260 250 212 238 251
288 282 262 217 209 213 210 202 206 189 194 198 202 195 198 219 218 205 201 201 198 196 197 202 197 197 198 196 182 184 161 159 181 158 107 280 282 234 227 221 243 240 206
300 308 308 263 229 222 208 206 208 201 199 202 127 99 81 86 140 190 205 209 204 201 197 205 204 194 198 203 198 195 196 201 192 200 160 141 235 119 201 228 221 225 238
17 10 4 11 311 253 221 218 198 193 198 182 186 200 214 223 225 216 212 198 207 217 216 209 208 201 199 208 204 198 203 196 199 229 233 237 136 248 289 220 249 233 222
15 12 17 28 15 7 308 229 199 184 171 181 190 196 209 221 160 174 192 206 202 217 221 218 213 205 206 213 201 195 202 206 202 206 167 224 222 189 245 267 256 206 249
5 16 16 27 27 26 38 37 154 155 165 176 180 186 201 202 184 200 227 222 216 220 232 235 232 217 211 210 203 202 205 209 216 210 222 201 180 211 212 239 247 251 237
19 29 32 31 28 32 33 48 83 103 161 183 195 206 223 202 215 213 211 204 225 227 234 224 236 234 227 218 213 206 212 212 217 221 217 226 233 239 200 237 258 231 226
30 39 33 43 30 31 41 44 52 53 45 287 254 255 242 236 231 221 216 221 216 221 218 220 230 239 234 221 216 213 217 217 223 230 229 227 235 230 230 234 237 260 234
37 37 31 25 43 29 37 42 47 47 43 19 344 297 287 277 271 265 242 242 240 235 237 233 235 236 239 239 230 227 219 218 219 225 225 226 230 230 231 227 227 247 266
41 34 31 19 26 25 17 29 31 30 14 18 13 349 325 304 293 289 273 264 268 248 246 242 235 243 235 231 236 242 234 221 218 219 222 224 229 231 224 223 223 226 246
55 44 34 25 31 36 33 30 28 27 18 8 354 356 347 332 320 297 284 268 263 248 240 239 236 236 235 226 229 240 244 243 240 226 223 227 226 230 226 219 220 222 223
67 56 47 37 29 25 25 26 22 25 14 356 2 5 2 358 349 320 294 289 274 267 256 248 239 239 235 227 224 236 238 241 242 241 246 237 226 231 234 229 224 228 221
49 48 40 38 33 26 22 21 19 13 2 0 3 0 4 359 352 325 318 309 294 278 273 253 247 246 242 235 229 239 246 244 242 240 235 236 226 234 233 234 229 230 229
52 49 42 35 31 23 13 6 5 4 359 2 3 357 356 347 336 334 339 339 333 313 304 287 274 262 256 246 248 249 246 247 244 236 236 233 227 233 231 234 232 230 223
46 35 29 21 24 17 5 351 344 341 340 346 348 343 329 314 330 329 328 323 321 312 301 300 289 272 258 256 253 251 248 242 244 234 228 230 227 230 230 228 227 211 219
62 39 27 15 8 0 347 327 323 318 324 330 309 289 305 322 308 303 305 304 302 302 299 292 283 288 275 259 254 250 239 238 243 247 235 230 230 239 240 241 236 205 209
86 46 24 357 335 339 319 331 317 302 303 292 287 290 305 307 311 307 308 306 299 293 293 291 289 279 275 278 267 251 242 235 236 234 229 237 230 229 237 249 248 232 229
69 36 6 341 334 332 345 330 336 340 343 335 329 311 323 318 306 307 295 300 300 305 304 297 290 291 286 295 283 269 249 247 244 234 232 234 234 220 222 229 226 172 165
59 119 337 311 328 345 346 346 340 342 343 339 338 339 337 327 324 316 309 293 286 286 284 275 289 288 293 302 292 288 263 259 264 273 258 239 238 249 236 196 161 122 97
245 337 344 320 326 338 352 344 329 331 325 329 324 321 319 317 316 314 315 296 289 296 296 295 265 270 283 304 300 284 226 258 266 310 303 249 230 257 243 153 144 134 134
337 329 343 317 302 323 344 323 316 305 296 312 312 311 308 301 294 303 302 303 309 310 305 298 295 293 282 280 281 258 203 272 260 263 261 262 242 234 151 143 138 130 130
314 300 299 298 299 308 320 289 289 290 308 306 302 301 298 296 293 291 292 295 296 292 292 294 293 287 299 297 293 138 154 179 181 250 263 268 202 133 120 114 132 124 105
283 277 268 300 310 319 242 285 278 310 306 301 298 298 298 297 271 284 291 298 289 285 282 270 273 281 294 305 110 90 85 86 84 117 230 199 144 119 113 124 110 98 104
271 274 322 305 299 301 267 242 284 296 295 297 301 305 307 308 298 275 262 271 277 278 279 272 263 254 261 292 88 83 58 61 62 69 30 109 102 98 81 94 90 94 99
295 292 276 280 284 294 293 291 280 284 291 283 286 290 293 293 299 282 273 266 252 247 250 248 217 201 242 197 129 117 104 86 90 70 71 78 80 80 76 73 72 60 67
307 299 270 272 287 288 295 302 252 247 275 289 286 283 289 282 278 283 294 285 275 282 273 271 210 225 205 169 131 131 130 123 121 80 82 72 69 74 82 98 96 50 52